Simultaneous Nadir Overpasses (SNOs) Predictions

Prediction of SNOs between GOES-17 and AQUA Satellite Orbit:

Table of predicted SNOs for the next 14.0 days since TLE Epoch: 1/8/2022
Index Date Time (GOES-17) GOES-17 Lat,Lon AQUA Lat,Lon Distance(km) Time Diff (sec)
1 01/08/2022 10:58:30 -0.03,-137.22 0.62,-140.14 332.96 80
2 01/10/2022 10:43:39 -0.03,-137.21 -0.02,-137.18 3.33 80
3 01/12/2022 10:34:08 -0.02,-137.20 -0.66,-134.22 338.25 80
4 01/12/2022 22:52:52 0.01,-137.19 -0.46,-139.41 252.94 80
5 01/14/2022 22:43:20 -0.01,-137.16 0.14,-136.44 81.94 80
6 01/16/2022 22:31:09 -0.01,-137.13 0.79,-133.48 415.53 80
7 01/17/2022 10:52:24 0.01,-137.13 0.34,-138.63 170.96 80
8 01/19/2022 10:37:33 0.01,-137.09 -0.32,-135.68 161.88 80
9 01/19/2022 22:58:55 -0.01,-137.08 -0.84,-140.85 429.99 80
10 01/21/2022 10:25:21 0.01,-137.05 -0.93,-132.71 494.29 80
11 01/21/2022 22:46:45 -0.01,-137.04 -0.17,-137.90 97.63 80
